Simultaneous Nadir Overpasses (SNOs) Predictions

Prediction of SNOs between NOAA-19 and NPP Satellite Orbit:

Table of predicted SNOs for the next 14.0 days since TLE Epoch: 3/6/2015
Index Date (NOAA-19) Time (NOAA-19) Lat,Lon (NOAA-19) SZA (NOAA-19 ) Date (NPP) Time (NPP) Lat,Lon (NPP) SZA (NPP ) Distance(km) Time Diff (sec)
1 03/14/2015 10:30:00 80.99, -28.37 87.14 03/14/2015 10:31:05 80.98, -28.37 87.10 0.48 65
2 03/14/2015 11:21:02 -80.98, 139.11 92.92 03/14/2015 11:21:50 -80.98, 139.00 92.93 1.97 48
3 03/14/2015 12:12:03 80.99, -53.92 87.11 03/14/2015 12:12:35 80.99, -53.81 87.08 2.08 32
4 03/14/2015 13:03:05 -80.98, 113.56 92.94 03/14/2015 13:03:20 -80.98, 113.56 92.95 0.04 15
5 03/14/2015 13:54:05 80.98, -79.11 87.04 03/14/2015 13:54:05 80.99, -79.24 87.06 2.52 0
6 03/14/2015 14:45:07 -80.98, 88.38 93.01 03/14/2015 14:44:49 -80.97, 88.49 93.02 1.96 18
7 03/14/2015 15:36:07 80.97,-104.29 86.97 03/14/2015 15:35:34 80.97,-104.31 86.99 0.48 33
8 03/14/2015 16:27:09 -80.97, 63.20 93.09 03/14/2015 16:26:19 -80.97, 63.05 93.04 2.70 50




NCC Satellite Simultaneous Nadir Overpasses (SNOs) Prediction Service
